When you browse on this site, cookies collect data to enhance your experience and personalize the content and advertising you see.
Visit our Privacy Policy to learn more. By continuing to use the site, you agree to this use of cookies and data.
  • In Österreich
  • Länderverzeichnis
  • Für 7 Tage
  • Wassertemperatur
  • Satellitenkarten
  • Wetterkarte
  • News
  • Widgets
  • user-avatar
    Anmelden

    Stündliche Wetter Ondjiwa

    Heute, 24 März, Sonntag

    Zeit Temperatur Niederschläge Wind Luftdruck Luftfeuchtigkeit
    00:00 +27°C° 0 mm 3 m/S 667 mmHg 45%
    01:00 +26°C° 0 mm 4 m/S 667 mmHg 50%
    02:00 +25°C° 0.3 mm 3 m/S 667 mmHg 53%
    03:00 +25°C° 0.3 mm 2 m/S 667 mmHg 56%
    04:00 +24°C° 0.3 mm 1 m/S 666 mmHg 60%
    05:00 +24°C° 0.4 mm 1 m/S 667 mmHg 60%
    06:00 +24°C° 0.4 mm 2 m/S 667 mmHg 59%
    07:00 +24°C° 0 mm 2 m/S 667 mmHg 62%
    08:00 +27°C° 0.1 mm 3 m/S 668 mmHg 52%
    09:00 +30°C° 0.1 mm 3 m/S 669 mmHg 42%
    10:00 +34°C° 0.1 mm 4 m/S 670 mmHg 32%
    11:00 +35°C° 0 mm 3 m/S 669 mmHg 29%
    12:00 +36°C° 0 mm 3 m/S 669 mmHg 26%
    13:00 +37°C° 0 mm 2 m/S 668 mmHg 24%
    14:00 +36°C° 0 mm 2 m/S 668 mmHg 25%
    15:00 +36°C° 0 mm 2 m/S 667 mmHg 27%
    16:00 +35°C° 0 mm 2 m/S 667 mmHg 28%
    17:00 +32°C° 0 mm 2 m/S 666 mmHg 31%
    18:00 +31°C° 0 mm 2 m/S 666 mmHg 33%
    19:00 +29°C° 0 mm 2 m/S 666 mmHg 35%
    20:00 +29°C° 0 mm 2 m/S 666 mmHg 37%
    21:00 +28°C° 0 mm 2 m/S 667 mmHg 38%
    22:00 +27°C° 0 mm 2 m/S 667 mmHg 39%
    23:00 +28°C° 0 mm 2 m/S 667 mmHg 39%

    Morgen, 25 März, Montag

    Zeit Temperatur Niederschläge Wind Luftdruck Luftfeuchtigkeit
    00:00 +28°C° 0 mm 3 m/S 667 mmHg 39%
    01:00 +28°C° 0 mm 3 m/S 667 mmHg 39%
    02:00 +27°C° 0 mm 2 m/S 667 mmHg 41%
    03:00 +27°C° 0 mm 2 m/S 667 mmHg 42%
    04:00 +26°C° 0 mm 1 m/S 666 mmHg 44%
    05:00 +26°C° 0 mm 1 m/S 667 mmHg 45%
    06:00 +26°C° 0 mm 1 m/S 667 mmHg 47%
    07:00 +26°C° 0 mm 1 m/S 667 mmHg 48%
    08:00 +28°C° 0 mm 2 m/S 668 mmHg 41%
    09:00 +31°C° 0 mm 3 m/S 668 mmHg 34%
    10:00 +34°C° 0 mm 4 m/S 669 mmHg 27%
    11:00 +36°C° 0 mm 3 m/S 669 mmHg 23%
    12:00 +37°C° 0 mm 3 m/S 668 mmHg 20%
    13:00 +39°C° 0 mm 3 m/S 668 mmHg 16%
    14:00 +38°C° 0 mm 2 m/S 667 mmHg 18%
    15:00 +37°C° 0 mm 2 m/S 666 mmHg 19%
    16:00 +35°C° 0 mm 1 m/S 665 mmHg 21%
    17:00 +33°C° 0 mm 1 m/S 665 mmHg 22%
    18:00 +32°C° 0 mm 1 m/S 665 mmHg 22%
    19:00 +31°C° 0 mm 1 m/S 665 mmHg 23%
    20:00 +31°C° 0 mm 2 m/S 666 mmHg 26%
    21:00 +30°C° 0 mm 2 m/S 666 mmHg 28%
    22:00 +29°C° 0 mm 2 m/S 666 mmHg 31%
    23:00 +28°C° 0 mm 2 m/S 666 mmHg 36%

    übermorgen, 26 März, Dienstag

    Zeit Temperatur Niederschläge Wind Luftdruck Luftfeuchtigkeit
    00:00 +27°C° 0 mm 2 m/S 666 mmHg 40%
    01:00 +26°C° 0 mm 2 m/S 666 mmHg 45%
    02:00 +25°C° 0 mm 2 m/S 666 mmHg 47%
    03:00 +25°C° 0 mm 2 m/S 665 mmHg 49%
    04:00 +24°C° 0 mm 2 m/S 665 mmHg 51%
    05:00 +24°C° 0.5 mm 2 m/S 666 mmHg 55%
    06:00 +24°C° 0.5 mm 3 m/S 666 mmHg 59%
    07:00 +24°C° 0.5 mm 3 m/S 666 mmHg 63%
    08:00 +25°C° 0.5 mm 2 m/S 667 mmHg 61%
    09:00 +26°C° 0.5 mm 2 m/S 667 mmHg 58%
    10:00 +27°C° 0.5 mm 2 m/S 668 mmHg 56%
    11:00 +30°C° 0 mm 2 m/S 668 mmHg 46%
    12:00 +34°C° 0 mm 2 m/S 668 mmHg 36%
    13:00 +36°C° 0 mm 1 m/S 668 mmHg 27%
    14:00 +34°C° 0.1 mm 1 m/S 667 mmHg 30%
    15:00 +34°C° 0.1 mm 2 m/S 667 mmHg 34%
    16:00 +31°C° 0.1 mm 2 m/S 666 mmHg 37%
    17:00 +29°C° 0.2 mm 2 m/S 666 mmHg 43%
    18:00 +28°C° 0.2 mm 2 m/S 666 mmHg 48%
    19:00 +26°C° 0.2 mm 3 m/S 666 mmHg 54%
    20:00 +25°C° 0.3 mm 2 m/S 667 mmHg 57%
    21:00 +25°C° 0.3 mm 2 m/S 667 mmHg 60%
    22:00 +24°C° 0.3 mm 2 m/S 668 mmHg 63%
    23:00 +23°C° 0.6 mm 2 m/S 668 mmHg 68%

    27 März, Mittwoch

    Zeit Temperatur Niederschläge Wind Luftdruck Luftfeuchtigkeit
    00:00 +23°C° 0.6 mm 2 m/S 667 mmHg 74%
    01:00 +21°C° 0.6 mm 2 m/S 667 mmHg 79%
    02:00 +21°C° 0 mm 2 m/S 667 mmHg 78%
    03:00 +21°C° 0 mm 2 m/S 667 mmHg 77%
    04:00 +22°C° 0 mm 1 m/S 666 mmHg 76%
    05:00 +22°C° 0 mm 1 m/S 667 mmHg 75%
    06:00 +22°C° 0 mm 1 m/S 668 mmHg 74%
    07:00 +22°C° 0 mm 1 m/S 668 mmHg 74%
    08:00 +25°C° 0 mm 1 m/S 669 mmHg 63%
    09:00 +28°C° 0 mm 1 m/S 670 mmHg 53%
    10:00 +31°C° 0 mm 1 m/S 671 mmHg 42%
    11:00 +32°C° 0 mm 1 m/S 670 mmHg 37%
    12:00 +34°C° 0 mm 1 m/S 670 mmHg 33%
    13:00 +36°C° 0 mm 2 m/S 669 mmHg 28%
    14:00 +36°C° 0 mm 2 m/S 669 mmHg 29%
    15:00 +35°C° 0 mm 2 m/S 668 mmHg 29%
    16:00 +35°C° 0 mm 2 m/S 668 mmHg 30%
    17:00 +32°C° 0 mm 2 m/S 668 mmHg 33%
    18:00 +30°C° 0 mm 1 m/S 668 mmHg 37%
    19:00 +28°C° 0 mm 1 m/S 668 mmHg 40%
    20:00 +28°C° 0 mm 1 m/S 668 mmHg 42%
    21:00 +27°C° 0 mm 1 m/S 668 mmHg 44%
    22:00 +26°C° 0 mm 2 m/S 669 mmHg 46%
    23:00 +26°C° 0 mm 2 m/S 669 mmHg 48%

    28 März, Donnerstag

    Zeit Temperatur Niederschläge Wind Luftdruck Luftfeuchtigkeit
    00:00 +25°C° 0 mm 2 m/S 668 mmHg 51%
    01:00 +24°C° 0 mm 2 m/S 668 mmHg 54%
    02:00 +24°C° 0 mm 2 m/S 668 mmHg 58%
    03:00 +23°C° 0 mm 2 m/S 668 mmHg 62%
    04:00 +21°C° 0 mm 2 m/S 668 mmHg 67%
    05:00 +23°C° 0 mm 2 m/S 668 mmHg 68%
    06:00 +23°C° 0 mm 2 m/S 669 mmHg 68%
    07:00 +23°C° 0 mm 2 m/S 669 mmHg 69%
    08:00 +25°C° 0 mm 2 m/S 670 mmHg 61%
    09:00 +28°C° 0 mm 2 m/S 670 mmHg 54%
    10:00 +30°C° 0 mm 2 m/S 671 mmHg 46%
    11:00 +33°C° 0 mm 3 m/S 670 mmHg 40%
    12:00 +34°C° 0 mm 3 m/S 670 mmHg 34%
    13:00 +36°C° 0 mm 3 m/S 669 mmHg 28%
    14:00 +35°C° 0 mm 3 m/S 669 mmHg 29%
    15:00 +35°C° 0 mm 3 m/S 668 mmHg 31%
    16:00 +34°C° 0 mm 3 m/S 668 mmHg 32%
    17:00 +32°C° 0 mm 2 m/S 668 mmHg 34%
    18:00 +31°C° 0 mm 2 m/S 668 mmHg 36%
    19:00 +29°C° 0 mm 2 m/S 668 mmHg 38%
    20:00 +29°C° 0 mm 2 m/S 668 mmHg 40%
    21:00 +28°C° 0 mm 2 m/S 669 mmHg 42%
    22:00 +27°C° 0 mm 2 m/S 669 mmHg 44%
    23:00 +26°C° 0 mm 2 m/S 668 mmHg 47%

    29 März, Freitag

    Zeit Temperatur Niederschläge Wind Luftdruck Luftfeuchtigkeit
    00:00 +25°C° 0 mm 2 m/S 668 mmHg 50%
    01:00 +24°C° 0 mm 2 m/S 668 mmHg 53%
    02:00 +24°C° 0 mm 2 m/S 667 mmHg 55%
    03:00 +23°C° 0 mm 1 m/S 667 mmHg 57%
    04:00 +23°C° 0 mm 1 m/S 667 mmHg 59%
    05:00 +23°C° 0 mm 1 m/S 668 mmHg 59%
    06:00 +24°C° 0 mm 1 m/S 668 mmHg 58%
    07:00 +24°C° 0 mm 1 m/S 669 mmHg 58%
    08:00 +28°C° 0 mm 2 m/S 669 mmHg 48%
    09:00 +31°C° 0 mm 3 m/S 670 mmHg 39%
    10:00 +35°C° 0 mm 3 m/S 671 mmHg 30%
    11:00 +35°C° 0 mm 3 m/S 670 mmHg 29%
    12:00 +34°C° 0 mm 3 m/S 669 mmHg 29%
    13:00 +34°C° 0 mm 3 m/S 668 mmHg 29%
    14:00 +35°C° 0 mm 3 m/S 668 mmHg 28%
    15:00 +35°C° 0 mm 3 m/S 668 mmHg 28%
    16:00 +35°C° 0 mm 3 m/S 668 mmHg 27%
    17:00 +34°C° 0 mm 2 m/S 668 mmHg 30%
    18:00 +31°C° 0 mm 1 m/S 668 mmHg 32%
    19:00 +30°C° 0 mm 1 m/S 668 mmHg 35%
    20:00 +29°C° 0 mm 1 m/S 668 mmHg 36%
    21:00 +28°C° 0 mm 1 m/S 668 mmHg 38%
    22:00 +28°C° 0 mm 1 m/S 668 mmHg 39%
    23:00 +28°C° 0 mm 2 m/S 668 mmHg 41%
    Mehr zeigen